Vorticity
5 5 6 6 5 5 5 5 6 7 7 7 7 7 8 9 10 11 10 11 14 15 16 18 19 21 21 22 23 23 22 21 20 19 18 18 18 17 17 16 15 15 13 11 10 9 8 8 7 6 6 5 4 4 4 4 4 4 4 4 4 4 4 4 4 4 4 4 4 4 4 4 4 4 4 4 4 4 4 4 4 4 5 5 6 8
8 9 9 9 8 9 9 10 10 9 9 8 8 9 10 11 13 15 15 18 20 20 21 22 22 21 21 21 20 18 16 15 15 14 14 14 13 13 12 11 10 8 7 6 6 6 5 5 5 5 5 5 5 5 5 5 5 4 4 4 4 4 4 3 3 3 3 3 3 3 3 3 3 3 3 3 3 4 4 4 4 4 3 3 3 3
12 12 11 11 10 10 10 9 8 8 9 10 12 14 16 19 20 21 21 22 21 20 19 18 17 15 15 15 13 12 11 11 11 11 10 10 9 9 7 6 7 6 6 6 6 6 6 6 5 5 5 5 4 5 4 4 4 4 4 3 3 3 3 3 3 2 2 2 3 3 3 3 3 3 3 3 3 3 3 3 4 4 4 4 4 4
11 10 9 9 9 10 10 11 13 15 17 19 21 22 22 23 21 19 18 17 15 14 12 12 11 10 8 9 8 8 8 8 8 7 8 9 8 7 6 6 6 6 6 6 6 6 5 5 5 4 4 4 3 3 3 3 3 3 3 2 2 3 3 3 3 3 2 2 3 2 2 3 3 3 3 3 3 3 3 3 3 3 4 4 4 4
9 9 10 12 14 16 17 18 20 21 21 20 19 19 17 15 14 12 11 10 9 9 7 7 8 7 5 7 8 7 7 6 6 6 7 9 8 6 6 6 6 6 5 5 5 5 4 4 4 4 3 4 3 3 3 4 3 3 3 3 3 3 3 4 4 4 4 4 3 3 3 3 3 4 4 4 4 4 4 3 3 3 3 3 4 4
12 14 16 17 17 18 17 17 17 16 14 12 12 11 9 8 8 7 7 6 6 7 7 6 8 8 5 6 8 8 7 7 6 6 8 9 8 6 6 5 5 5 4 4 4 4 4 3 3 4 4 4 4 4 4 4 4 4 4 4 4 4 4 5 5 5 5 5 5 5 4 4 4 4 4 4 4 4 4 4 4 4 4 3 4 4
15 15 13 13 13 12 12 11 11 9 9 8 8 8 7 7 7 6 6 6 6 8 8 6 8 9 5 5 8 7 6 6 5 5 7 7 8 7 6 5 4 3 4 4 5 5 4 4 4 4 4 4 4 4 4 5 5 5 5 5 5 5 5 5 5 5 5 5 6 6 6 6 6 6 5 5 5 4 4 5 4 4 4 4 4 4
12 10 9 10 9 10 10 9 8 7 7 7 8 8 7 7 7 6 6 6 6 8 8 7 6 8 7 5 6 6 5 4 5 5 5 6 9 9 7 4 3 3 3 3 4 5 4 4 4 4 4 4 4 4 4 4 5 5 5 5 5 5 5 5 5 5 5 5 5 5 6 6 6 6 6 5 6 5 5 5 4 4 4 4 4 4
9 7 7 9 8 8 8 7 8 8 8 8 7 7 7 7 6 5 6 6 6 7 7 6 4 7 9 6 5 8 6 4 5 5 5 6 8 9 6 3 2 1 2 3 3 4 4 4 3 3 4 4 4 4 4 4 4 4 4 4 4 5 5 5 5 5 5 6 5 6 7 6 6 6 6 6 6 6 6 6 5 5 4 4 4 4
7 6 7 9 8 7 8 8 8 8 8 6 6 7 8 7 5 6 7 6 6 7 6 6 5 6 10 8 6 8 7 5 6 5 5 7 7 8 6 3 0 0 1 2 3 3 3 4 3 3 4 4 4 4 4 4 4 4 5 6 6 6 6 6 6 6 7 7 7 8 8 7 8 8 7 7 6 6 6 7 6 6 5 4 4 5
8 7 7 9 8 7 8 7 7 7 6 7 7 7 7 6 5 6 7 7 7 8 6 6 6 6 10 8 4 6 6 5 5 5 6 7 5 6 6 2 0 1 2 2 2 3 4 4 4 4 4 5 4 4 4 4 5 6 6 7 8 8 9 9 8 8 8 8 8 9 8 8 9 8 8 8 6 6 6 6 6 6 6 6 6 6
8 7 7 8 7 8 8 6 7 7 6 7 6 6 7 7 6 7 8 8 7 7 6 6 6 6 9 8 3 4 5 3 4 5 7 7 6 6 4 1 2 3 3 2 2 4 4 4 4 5 5 5 5 5 5 6 7 8 8 8 9 10 11 11 10 10 9 9 9 8 8 8 9 8 8 8 6 5 6 6 5 6 7 7 8 7
8 7 8 9 9 9 8 6 8 8 6 7 7 8 9 8 8 9 7 7 7 7 7 7 5 7 11 9 4 4 4 3 5 7 8 7 6 4 -1 -1 3 3 3 3 4 5 5 5 6 6 7 7 7 8 8 9 9 9 10 10 11 12 12 11 10 9 8 7 8 7 8 8 8 8 7 7 6 5 5 6 7 8 8 9 10 10
7 7 8 9 10 9 7 7 10 9 7 9 9 9 9 7 7 7 5 6 7 7 9 7 5 10 14 9 4 5 6 6 7 7 7 7 3 -2 -3 1 4 3 4 5 6 6 6 7 7 7 8 8 8 8 8 9 10 10 11 11 12 13 11 9 8 8 7 7 7 7 8 8 6 6 5 4 4 4 7 9 11 11 11 12 12 12
8 8 9 10 10 9 7 8 9 8 8 9 8 7 8 7 6 7 7 7 5 7 9 7 7 11 12 9 7 8 7 6 7 6 4 3 0 -1 1 5 5 5 7 7 7 7 7 7 7 7 7 7 7 7 8 9 11 11 12 12 11 11 10 8 7 7 7 8 8 8 7 5 3 2 2 3 4 6 8 9 8 8 9 12 13 13
9 9 9 10 11 10 9 9 8 9 9 8 7 8 8 7 8 8 6 5 5 6 6 6 7 6 10 16 13 8 8 7 6 3 1 2 3 4 6 6 6 7 7 7 7 7 7 7 7 7 7 7 7 8 9 10 11 10 11 10 9 9 8 7 8 9 9 8 7 4 2 0 1 2 3 4 5 5 5 5 5 6 7 9 11 11
9 10 10 9 10 11 10 9 9 9 8 7 8 7 7 8 9 6 5 6 5 5 4 5 5 2 11 22 17 10 11 7 2 1 3 5 5 6 7 7 7 7 7 7 6 6 7 7 7 7 7 7 8 10 10 11 10 10 10 9 8 8 8 8 9 8 6 4 2 1 1 2 3 4 4 5 5 6 9 11 13 15 17 17 16 14
8 10 9 8 9 10 9 9 9 8 7 7 7 7 9 9 7 6 8 8 6 7 5 5 6 4 9 17 15 10 5 -2 -1 4 5 5 5 7 8 8 8 7 6 7 6 6 7 7 7 7 8 9 11 11 11 11 10 10 9 8 8 9 9 8 7 4 2 2 2 3 4 4 4 5 6 8 11 15 19 20 22 24 24 24 23 22
8 8 8 8 8 8 8 9 9 8 7 6 6 7 8 7 6 8 8 9 10 9 5 6 9 7 9 13 8 -0 -3 -1 4 6 4 4 6 7 8 7 6 6 6 7 7 8 8 8 8 8 10 11 11 11 11 10 10 9 8 8 9 9 8 5 3 2 2 3 4 5 5 5 8 12 18 22 25 27 28 27 26 25 23 23 22 20
7 7 8 9 7 8 9 9 8 8 8 8 7 7 7 6 6 6 6 10 10 6 5 5 8 13 16 11 2 -4 0 6 5 3 4 6 7 8 8 7 6 6 7 8 9 9 8 8 9 10 11 11 10 10 10 9 8 8 8 9 8 6 4 2 1 2 4 4 3 3 4 9 16 23 27 28 27 26 24 22 20 19 17 17 16 16
7 8 9 9 7 9 9 8 9 8 7 9 7 6 7 7 6 5 5 8 6 5 6 1 5 27 29 11 2 5 7 6 4 4 6 6 7 8 7 6 6 7 9 10 9 9 9 10 11 11 10 10 10 10 9 8 8 10 10 8 5 2 1 2 3 3 3 3 4 9 16 23 29 29 26 23 19 16 15 15 15 14 12 12 13 15
8 9 8 9 9 9 7 8 8 6 6 8 6 6 6 6 8 7 5 5 3 3 7 3 5 23 25 10 7 9 5 4 5 5 5 7 8 7 5 6 8 9 10 9 9 9 10 11 10 9 9 10 10 9 8 10 10 10 7 4 2 2 3 4 5 4 5 9 17 25 31 33 29 23 18 15 13 12 14 15 14 11 11 14 16 19
9 8 7 10 10 8 6 7 6 5 8 9 6 6 6 6 7 6 4 6 4 4 11 8 -1 2 10 10 7 5 4 4 4 6 8 9 8 6 6 8 9 10 10 9 9 10 10 10 9 10 11 10 10 10 11 11 10 7 4 3 4 5 5 5 5 7 14 23 30 33 30 24 18 14 13 12 13 16 18 18 15 14 16 19 21 22
8 7 7 9 11 10 8 8 7 6 8 9 7 7 8 8 6 3 5 5 5 12 15 6 -2 1 8 10 7 5 6 5 6 10 11 8 7 7 8 9 10 10 10 9 9 9 9 10 10 11 11 10 10 11 12 10 7 4 4 4 5 5 4 5 8 17 26 31 31 26 19 15 14 14 15 16 20 24 23 21 20 20 20 20 21 21
7 7 7 7 10 11 8 8 8 6 6 5 5 7 8 9 5 3 7 6 7 15 11 3 6 9 7 8 8 7 6 6 9 10 8 7 8 8 9 10 10 9 9 8 8 9 9 10 11 11 10 10 12 12 10 7 4 4 5 5 5 4 4 8 17 26 31 30 24 17 14 14 16 18 21 25 29 30 28 26 24 22 23 22 22 23
8 9 8 7 8 8 7 7 5 4 5 3 4 7 7 6 5 5 7 8 11 12 9 11 14 10 8 11 9 6 6 7 7 7 7 8 8 9 10 9 9 8 8 8 9 9 10 10 11 11 11 11 12 10 7 4 4 5 5 5 4 4 7 15 25 31 30 23 16 13 14 17 20 24 29 34 36 34 31 28 25 24 26 25 25 24
10 12 10 8 9 9 7 7 6 5 5 3 7 11 8 5 7 7 8 13 15 9 9 18 14 5 11 13 6 6 8 7 9 9 9 8 8 10 9 8 8 9 8 9 10 11 11 11 11 11 11 11 9 7 5 4 5 5 5 5 4 6 13 23 31 31 24 17 12 13 16 19 25 31 36 38 36 34 32 32 33 34 32 27 25 21
10 13 9 8 12 11 8 8 7 6 4 4 9 12 9 6 6 6 9 15 14 6 7 15 9 4 11 12 6 8 9 9 11 10 7 8 9 9 8 8 8 8 9 10 11 11 11 11 11 11 10 9 6 5 4 5 6 5 4 4 7 14 24 32 33 26 17 13 12 13 17 23 31 37 39 37 34 33 34 36 37 39 36 29 21 15
9 12 10 8 13 15 12 9 7 6 5 5 10 13 10 6 4 5 9 11 9 6 7 10 9 9 12 10 6 8 10 11 10 8 8 10 8 8 8 7 8 9 10 11 10 11 11 10 11 11 9 7 5 5 5 5 6 5 4 7 14 24 33 34 27 17 13 12 12 13 20 27 34 38 37 35 33 34 37 36 32 31 32 31 29 25
7 12 12 8 13 20 15 9 8 8 7 7 13 16 10 5 7 9 9 8 7 8 9 9 9 10 9 6 6 9 11 10 9 8 10 9 7 8 7 8 10 10 10 10 10 10 10 11 11 10 8 6 5 5 6 6 5 4 6 13 23 32 34 26 17 13 13 13 11 14 23 30 35 36 34 31 32 35 37 37 35 31 25 24 26 27
5 9 12 6 10 20 14 7 10 9 8 11 15 13 5 5 12 13 9 8 8 8 10 10 10 9 7 5 8 10 10 9 8 8 9 8 7 8 8 9 10 10 10 11 10 10 11 11 10 8 7 6 5 6 6 5 5 6 12 23 32 34 27 16 12 14 14 11 11 16 24 31 34 34 30 28 31 34 36 35 35 36 31 25 21 20
4 6 9 5 7 16 12 7 9 8 11 16 12 6 5 7 12 13 9 9 9 10 10 10 9 9 8 9 10 11 9 8 9 9 9 8 7 8 9 10 9 10 11 11 10 11 11 11 9 8 7 6 6 6 5 5 6 12 21 30 34 28 17 11 13 15 13 11 12 17 24 30 33 31 28 26 27 33 35 31 27 29 32 32 28 25
4 3 7 4 4 13 12 7 6 6 11 15 10 5 5 6 8 10 9 9 11 11 11 9 8 9 10 11 11 10 9 8 9 10 9 7 7 8 9 9 10 11 10 10 11 11 11 10 9 7 6 6 6 5 5 6 10 18 28 33 29 18 10 11 15 14 12 11 13 17 24 29 31 29 26 23 23 28 31 29 24 22 23 26 28 27
3 3 6 4 1 10 14 7 5 8 10 11 11 7 4 5 9 8 7 10 12 11 10 9 9 9 10 12 11 9 8 9 10 10 7 7 8 9 9 11 11 10 9 10 11 10 10 10 8 7 7 6 6 5 5 9 17 25 31 30 21 11 9 13 15 13 12 12 12 16 23 27 29 28 25 21 20 22 25 26 25 21 19 19 20 22
2 1 5 4 1 7 13 7 5 11 14 13 11 5 2 7 11 7 6 10 11 9 9 8 8 9 11 11 10 9 9 10 10 8 7 8 9 10 11 11 10 9 10 10 10 10 10 9 7 7 7 6 5 5 8 15 23 28 30 25 15 9 10 14 15 13 13 12 12 15 20 25 27 27 25 22 19 19 20 21 22 21 19 16 15 16
3 1 3 4 2 5 9 7 5 8 16 18 10 1 4 10 10 6 7 11 11 8 8 8 8 10 12 11 10 9 9 10 9 8 7 9 10 11 11 10 9 10 10 10 11 11 10 8 8 8 7 5 5 7 11 18 25 28 27 20 11 8 12 14 14 14 13 12 11 13 17 22 25 26 25 23 21 20 19 20 21 21 20 18 17 16
5 5 3 1 3 5 5 7 7 6 15 19 7 1 7 11 9 7 7 11 12 7 7 9 10 11 12 11 10 9 9 10 9 8 8 10 11 11 11 10 10 10 9 10 11 11 9 9 8 7 6 5 6 9 14 21 26 28 24 16 9 9 13 14 13 13 13 11 10 11 14 18 21 24 25 24 22 21 20 21 23 23 23 22 19 18
7 9 6 1 4 5 2 5 6 6 15 17 5 2 9 9 8 8 8 11 11 6 6 10 11 11 11 10 10 9 9 10 9 8 8 10 11 11 11 10 10 9 10 11 11 10 9 9 8 7 6 5 7 11 17 23 27 27 21 13 8 9 13 14 13 13 13 12 10 10 12 14 17 20 22 23 22 22 21 21 22 23 24 24 22 20
9 11 8 4 6 5 3 5 6 8 16 15 5 4 8 8 8 9 9 11 10 5 8 11 11 12 11 9 10 10 10 10 9 7 9 11 11 11 11 10 10 10 10 11 11 10 9 8 8 7 5 6 10 13 19 24 26 25 19 12 8 10 12 13 12 12 12 12 10 9 9 11 13 15 17 19 20 21 22 20 19 19 20 22 24 24
11 11 7 6 7 6 5 4 5 14 20 13 5 6 7 7 9 10 9 11 10 7 9 11 11 11 10 9 10 11 11 10 8 7 9 11 11 11 10 9 9 10 11 11 11 10 9 9 8 6 5 8 11 15 19 24 26 25 18 10 8 11 12 12 12 12 11 11 10 9 9 9 11 12 14 15 16 17 20 21 19 18 17 18 20 21
12 10 7 6 5 8 8 1 4 18 21 10 5 8 8 7 9 10 9 11 10 9 9 11 12 11 10 10 11 11 11 10 7 8 10 11 11 10 10 8 9 10 11 11 10 10 10 9 7 5 6 9 12 16 20 25 27 23 15 10 9 10 11 12 12 11 10 11 10 10 9 8 9 10 12 13 14 14 16 18 19 18 18 17 17 17
13 7 6 7 5 7 8 3 7 15 13 9 10 9 7 8 9 10 11 10 9 9 10 11 11 9 10 11 11 11 12 9 7 9 11 11 10 9 9 9 9 10 11 10 10 10 10 8 6 6 7 9 12 17 21 25 25 21 14 10 9 9 10 11 12 11 10 10 10 9 9 8 8 9 10 11 12 13 14 16 17 17 18 19 18 17
13 5 3 7 9 8 5 8 16 14 5 9 16 10 5 8 10 10 11 10 9 10 11 11 10 9 10 11 11 12 11 8 7 10 11 11 10 9 10 9 9 11 11 11 11 10 9 8 6 5 7 10 13 17 22 24 23 20 16 11 9 10 9 9 11 12 11 10 10 9 9 9 8 8 9 9 10 11 12 14 15 15 16 19 19 18
13 5 2 6 12 7 3 14 23 13 2 9 16 10 6 9 11 11 10 9 9 11 11 10 10 10 10 11 12 12 10 7 8 11 11 11 10 10 10 9 9 11 11 11 11 11 10 8 6 5 8 10 13 17 22 24 24 20 16 11 10 10 9 8 10 11 10 10 10 9 9 9 8 8 9 9 9 9 10 12 13 14 15 16 18 18
9 3 3 11 13 4 5 19 21 9 6 11 12 10 8 9 11 11 9 9 10 11 11 11 10 10 10 11 12 12 9 7 8 11 11 10 10 10 9 9 9 11 12 12 11 11 10 7 6 6 7 10 13 16 20 25 25 21 16 12 11 10 9 8 9 10 10 11 10 10 9 9 8 9 9 9 9 8 9 10 11 11 12 14 15 16
5 2 7 15 10 -1 6 20 16 9 15 15 8 8 10 11 12 10 8 10 11 11 12 11 9 11 11 11 13 11 8 7 9 11 12 10 10 10 10 9 10 11 12 12 11 11 10 8 6 6 7 9 12 15 19 24 25 21 16 12 11 11 10 8 7 9 10 11 10 11 10 9 9 9 9 10 10 8 8 9 10 10 10 12 13 14
1 5 13 13 5 -1 10 19 13 12 21 16 7 9 11 10 12 10 8 10 11 11 12 9 9 12 12 12 13 10 6 7 9 11 11 10 10 11 10 9 10 11 13 13 11 11 10 8 6 6 7 9 11 14 19 23 24 22 17 12 11 12 11 9 8 8 10 11 11 11 10 9 10 9 9 9 10 9 9 9 9 9 9 11 12 12
-3 11 15 6 1 6 15 17 11 14 22 15 8 11 12 11 12 10 8 11 11 11 11 9 10 12 13 13 13 8 6 8 10 11 11 10 10 11 10 9 10 12 13 13 12 11 10 8 6 6 6 8 11 13 17 21 24 24 18 11 11 13 11 10 9 8 9 11 12 11 11 10 9 9 9 9 9 9 9 9 10 10 8 9 11 12
1 15 12 -0 2 12 18 16 11 14 20 15 10 12 13 11 10 8 8 10 12 12 11 9 11 13 13 14 11 7 7 9 10 10 11 11 11 11 9 9 10 12 13 13 11 12 11 8 7 6 6 8 9 12 16 20 23 25 20 13 11 12 12 11 10 9 9 10 11 12 12 11 10 9 9 9 9 9 8 8 10 12 11 9 8 9
8 16 7 -1 5 13 17 16 12 13 17 15 13 13 13 11 10 8 9 11 12 12 11 10 11 14 14 14 10 7 8 9 9 10 11 11 11 10 9 9 11 12 13 13 12 12 11 9 7 6 6 7 8 10 14 18 21 24 23 16 11 11 12 12 10 10 11 10 11 12 12 12 12 11 10 10 10 10 9 8 7 9 12 12 10 9
13 13 4 1 7 14 17 15 12 13 14 13 14 14 12 11 9 8 10 13 13 12 10 10 13 15 15 13 10 7 7 8 9 11 11 11 11 10 8 9 11 12 13 13 12 12 11 10 8 7 6 7 7 9 13 16 19 23 23 19 13 11 12 12 11 11 11 10 10 11 12 13 13 12 12 11 11 11 11 11 9 7 7 10 11 11
Height
5750 5748 5747 5746 5745 5744 5743 5741 5740 5739 5737 5736 5735 5733 5732 5730 5729 5727 5725 5723 5722 5720 5718 5716 5714 5712 5709 5707 5705 5703 5701 5699 5697 5695 5693 5691 5689 5687 5686 5684 5682 5680 5678 5676 5674 5672 5670 5668 5666 5664 5662 5659 5657 5655 5652 5650 5647 5645 5643 5640 5638 5635 5632 5630 5627 5625 5623 5620 5618 5616 5614 5611 5609 5607 5605 5603 5601 5598 5595 5593 5591 5589 5586 5584 5581 5580
5747 5746 5745 5743 5742 5741 5740 5738 5737 5735 5734 5733 5731 5730 5728 5727 5725 5724 5722 5720 5718 5716 5714 5712 5710 5708 5706 5704 5702 5700 5698 5696 5694 5692 5690 5688 5686 5684 5683 5681 5679 5677 5675 5673 5671 5669 5667 5665 5663 5661 5659 5656 5654 5651 5649 5647 5644 5641 5639 5636 5634 5631 5628 5625 5623 5620 5617 5615 5612 5609 5607 5604 5602 5600 5598 5595 5593 5591 5589 5586 5584 5582 5579 5576 5574 5572
5745 5743 5742 5741 5740 5739 5737 5736 5735 5733 5731 5730 5728 5727 5725 5724 5722 5720 5718 5717 5715 5712 5710 5708 5707 5704 5703 5701 5699 5697 5695 5693 5691 5689 5688 5686 5684 5682 5680 5679 5677 5675 5673 5671 5669 5667 5665 5663 5660 5658 5656 5653 5651 5648 5646 5643 5640 5638 5635 5632 5630 5627 5624 5621 5618 5615 5612 5609 5606 5603 5600 5598 5595 5592 5590 5587 5585 5583 5581 5578 5576 5574 5571 5569 5566 5564
5743 5742 5740 5739 5738 5736 5735 5734 5732 5731 5729 5727 5726 5724 5723 5721 5719 5717 5715 5714 5712 5710 5708 5706 5704 5702 5700 5698 5696 5694 5692 5691 5689 5687 5685 5683 5681 5680 5678 5676 5674 5672 5670 5668 5666 5664 5662 5660 5657 5655 5652 5650 5647 5644 5642 5639 5636 5633 5631 5628 5625 5622 5619 5616 5612 5609 5606 5603 5600 5597 5594 5591 5588 5585 5582 5579 5577 5574 5572 5570 5567 5565 5562 5560 5557 5555
5741 5740 5738 5737 5735 5734 5733 5731 5730 5728 5727 5725 5724 5722 5720 5719 5717 5715 5714 5712 5710 5708 5707 5705 5702 5700 5698 5696 5694 5692 5690 5688 5687 5685 5683 5681 5679 5677 5675 5673 5671 5669 5667 5665 5662 5660 5658 5656 5653 5651 5648 5645 5643 5640 5637 5635 5632 5629 5626 5622 5619 5616 5613 5609 5606 5603 5600 5597 5593 5590 5587 5584 5581 5578 5574 5571 5568 5566 5563 5561 5559 5556 5554 5551 5548 5545
5739 5738 5736 5735 5734 5732 5731 5729 5728 5726 5725 5723 5722 5720 5718 5717 5715 5713 5712 5710 5708 5706 5704 5702 5700 5698 5695 5694 5692 5690 5688 5686 5684 5682 5680 5678 5676 5673 5671 5669 5667 5665 5663 5661 5659 5656 5654 5651 5649 5646 5643 5641 5638 5635 5632 5629 5626 5623 5620 5617 5614 5610 5606 5602 5599 5596 5593 5589 5586 5582 5579 5576 5573 5570 5566 5563 5560 5557 5554 5552 5550 5547 5545 5542 5539 5536
5738 5736 5735 5734 5732 5731 5729 5728 5726 5725 5723 5721 5720 5718 5716 5715 5713 5711 5709 5708 5706 5704 5702 5699 5697 5696 5693 5691 5690 5688 5685 5684 5681 5679 5677 5674 5672 5670 5668 5665 5663 5661 5659 5657 5654 5651 5649 5646 5644 5641 5638 5635 5632 5629 5626 5623 5620 5617 5614 5611 5607 5604 5600 5596 5592 5588 5585 5582 5578 5574 5571 5568 5564 5561 5557 5553 5550 5547 5544 5542 5539 5537 5535 5532 5529 5526
5737 5735 5734 5732 5730 5729 5727 5726 5724 5723 5721 5719 5718 5716 5714 5713 5711 5709 5707 5705 5703 5701 5699 5697 5694 5694 5691 5688 5687 5685 5683 5680 5678 5675 5673 5671 5669 5666 5664 5661 5659 5657 5654 5652 5649 5646 5644 5641 5638 5635 5632 5629 5626 5623 5620 5616 5613 5610 5607 5603 5600 5596 5592 5588 5584 5581 5577 5573 5569 5566 5562 5559 5555 5551 5548 5544 5540 5537 5534 5531 5528 5525 5523 5521 5518 5515
5735 5734 5732 5730 5729 5727 5725 5724 5722 5720 5718 5717 5716 5714 5712 5710 5709 5707 5705 5703 5701 5699 5697 5694 5692 5691 5689 5686 5684 5683 5680 5677 5674 5672 5670 5668 5666 5663 5660 5658 5655 5653 5650 5648 5645 5642 5639 5635 5632 5629 5626 5622 5619 5616 5613 5609 5606 5602 5599 5595 5592 5588 5584 5580 5576 5572 5568 5564 5560 5557 5553 5549 5545 5541 5537 5534 5530 5527 5523 5520 5517 5514 5512 5509 5506 5503
5734 5732 5730 5729 5727 5725 5723 5722 5720 5718 5716 5715 5713 5712 5710 5708 5706 5704 5702 5699 5697 5695 5693 5691 5688 5687 5686 5683 5680 5679 5677 5674 5671 5669 5666 5664 5662 5660 5657 5655 5652 5649 5646 5643 5640 5637 5634 5630 5627 5623 5620 5616 5612 5609 5606 5602 5598 5595 5591 5587 5584 5580 5575 5571 5567 5563 5559 5554 5551 5547 5543 5539 5535 5531 5526 5523 5520 5515 5511 5508 5505 5502 5500 5497 5494 5491
5732 5731 5729 5727 5725 5724 5722 5720 5718 5716 5714 5713 5711 5709 5707 5705 5703 5701 5699 5696 5694 5692 5690 5688 5685 5682 5681 5679 5675 5674 5673 5670 5668 5665 5663 5661 5658 5656 5653 5651 5648 5644 5641 5638 5635 5632 5628 5625 5621 5617 5614 5610 5606 5602 5598 5594 5590 5587 5583 5579 5575 5571 5566 5561 5558 5553 5550 5545 5541 5537 5532 5529 5525 5520 5516 5512 5509 5504 5499 5496 5493 5490 5487 5485 5481 5478
5731 5729 5727 5726 5724 5722 5720 5718 5716 5714 5712 5711 5709 5707 5705 5703 5701 5698 5696 5694 5691 5689 5687 5685 5682 5679 5677 5675 5672 5670 5668 5666 5664 5661 5659 5657 5654 5652 5650 5646 5643 5639 5636 5632 5629 5625 5622 5618 5614 5610 5607 5603 5599 5595 5590 5586 5582 5578 5574 5570 5567 5563 5557 5552 5548 5544 5540 5535 5531 5526 5522 5518 5514 5509 5505 5501 5498 5493 5488 5484 5481 5477 5474 5471 5468 5465
5729 5728 5726 5724 5723 5721 5719 5717 5715 5713 5711 5709 5707 5704 5702 5700 5698 5696 5694 5692 5690 5687 5685 5682 5680 5677 5675 5672 5669 5667 5664 5662 5659 5657 5654 5652 5649 5647 5645 5641 5637 5633 5630 5626 5623 5619 5615 5611 5607 5603 5599 5596 5591 5587 5582 5578 5574 5570 5566 5561 5557 5554 5548 5543 5539 5534 5530 5526 5521 5516 5512 5508 5503 5498 5494 5490 5486 5481 5475 5471 5467 5464 5460 5457 5453 5450
5728 5726 5725 5723 5721 5719 5718 5716 5713 5711 5709 5707 5705 5702 5700 5698 5696 5694 5692 5690 5688 5686 5683 5679 5677 5675 5673 5669 5666 5663 5660 5657 5654 5651 5649 5646 5643 5641 5639 5636 5632 5627 5623 5620 5616 5612 5607 5603 5599 5595 5592 5588 5584 5579 5574 5570 5565 5561 5558 5553 5549 5546 5540 5534 5529 5525 5521 5516 5511 5506 5502 5498 5492 5487 5482 5478 5473 5468 5463 5458 5453 5450 5446 5442 5438 5435
5726 5725 5723 5721 5719 5718 5716 5714 5712 5710 5707 5705 5703 5701 5699 5696 5694 5691 5689 5687 5685 5683 5681 5677 5674 5672 5670 5666 5663 5659 5656 5653 5649 5647 5643 5640 5637 5634 5631 5628 5625 5621 5617 5613 5609 5605 5600 5596 5592 5588 5584 5580 5575 5571 5566 5562 5557 5552 5549 5544 5539 5537 5532 5525 5520 5516 5511 5506 5501 5496 5492 5487 5481 5476 5471 5465 5460 5455 5449 5444 5439 5435 5432 5427 5423 5419
5725 5723 5722 5720 5718 5716 5714 5712 5710 5708 5705 5703 5701 5699 5696 5693 5690 5688 5685 5683 5680 5679 5678 5675 5672 5670 5666 5662 5659 5656 5652 5648 5645 5642 5639 5634 5631 5628 5625 5621 5617 5614 5610 5606 5602 5598 5593 5589 5585 5580 5576 5572 5567 5562 5558 5553 5548 5543 5539 5535 5530 5527 5522 5516 5510 5505 5500 5495 5491 5486 5481 5475 5469 5463 5458 5452 5447 5441 5435 5428 5423 5419 5416 5412 5408 5404
5724 5722 5720 5719 5716 5714 5712 5710 5707 5705 5703 5701 5698 5695 5692 5690 5687 5683 5681 5679 5676 5673 5673 5672 5669 5667 5664 5659 5655 5651 5647 5644 5641 5638 5634 5629 5626 5623 5619 5615 5611 5607 5603 5599 5595 5591 5587 5582 5578 5573 5568 5564 5559 5554 5550 5545 5539 5535 5530 5526 5521 5517 5512 5506 5500 5494 5489 5484 5479 5474 5469 5463 5456 5450 5444 5438 5432 5426 5419 5411 5406 5401 5397 5394 5390 5387
5722 5720 5719 5716 5714 5712 5710 5707 5705 5703 5700 5697 5694 5691 5688 5685 5683 5680 5677 5675 5671 5667 5666 5666 5664 5662 5661 5657 5652 5648 5644 5640 5638 5634 5629 5625 5621 5618 5615 5610 5606 5602 5598 5593 5589 5584 5580 5575 5571 5566 5561 5556 5551 5547 5542 5537 5532 5526 5521 5516 5512 5507 5502 5496 5490 5484 5479 5473 5467 5462 5456 5449 5442 5435 5429 5422 5415 5410 5403 5395 5390 5384 5379 5375 5372 5368
5720 5718 5716 5714 5711 5709 5707 5705 5702 5699 5697 5694 5691 5688 5684 5681 5678 5675 5673 5670 5666 5662 5659 5659 5658 5658 5657 5654 5649 5645 5640 5636 5633 5629 5625 5620 5617 5614 5610 5605 5600 5596 5592 5588 5583 5579 5574 5569 5564 5559 5554 5550 5544 5539 5534 5529 5524 5518 5512 5507 5502 5497 5492 5487 5480 5473 5467 5461 5454 5448 5443 5435 5427 5420 5414 5406 5399 5393 5387 5380 5374 5368 5363 5359 5355 5352
5719 5716 5714 5711 5709 5706 5704 5702 5699 5697 5694 5691 5688 5685 5681 5678 5674 5671 5669 5666 5662 5658 5654 5650 5649 5652 5654 5650 5644 5640 5635 5631 5627 5622 5619 5615 5612 5608 5603 5598 5594 5590 5586 5582 5577 5572 5567 5561 5557 5552 5547 5542 5536 5531 5525 5520 5515 5509 5503 5498 5492 5487 5482 5476 5470 5462 5455 5449 5442 5435 5429 5421 5413 5405 5397 5390 5383 5378 5372 5366 5359 5354 5349 5345 5341 5338
5717 5715 5712 5709 5707 5704 5701 5699 5696 5694 5691 5688 5686 5682 5678 5674 5670 5665 5663 5663 5659 5655 5651 5644 5638 5644 5651 5646 5640 5635 5630 5625 5620 5615 5613 5609 5605 5601 5595 5590 5587 5583 5579 5575 5570 5565 5559 5554 5550 5544 5539 5533 5528 5523 5517 5511 5506 5501 5495 5489 5483 5478 5472 5466 5460 5452 5443 5436 5428 5419 5411 5404 5395 5387 5380 5374 5368 5362 5357 5352 5345 5339 5335 5331 5327 5324
5715 5713 5711 5708 5704 5701 5699 5696 5693 5691 5689 5686 5683 5679 5675 5671 5667 5661 5657 5657 5656 5652 5650 5642 5633 5639 5647 5641 5634 5630 5624 5619 5613 5609 5607 5604 5599 5595 5589 5585 5581 5577 5573 5568 5563 5558 5552 5547 5542 5537 5531 5525 5520 5514 5508 5503 5498 5492 5487 5480 5474 5468 5461 5454 5447 5438 5429 5420 5411 5402 5394 5386 5379 5371 5364 5358 5352 5347 5342 5337 5330 5324 5320 5316 5313 5310
5712 5710 5709 5707 5704 5700 5697 5694 5690 5688 5686 5684 5680 5676 5672 5668 5664 5659 5654 5652 5650 5647 5647 5638 5628 5634 5640 5633 5628 5624 5618 5612 5607 5603 5601 5598 5593 5588 5584 5580 5576 5571 5566 5561 5555 5550 5545 5540 5534 5529 5524 5518 5512 5507 5501 5495 5490 5484 5477 5470 5463 5456 5448 5440 5432 5423 5414 5404 5396 5387 5379 5372 5365 5357 5350 5343 5337 5332 5327 5321 5314 5308 5304 5301 5298 5295
5709 5707 5705 5704 5703 5700 5696 5692 5689 5686 5684 5682 5678 5674 5669 5665 5661 5657 5652 5649 5645 5643 5643 5634 5624 5627 5631 5626 5622 5617 5611 5606 5601 5597 5594 5591 5587 5582 5578 5574 5569 5564 5559 5553 5548 5543 5537 5532 5527 5521 5516 5511 5505 5499 5493 5488 5481 5475 5468 5460 5452 5445 5437 5428 5419 5409 5400 5391 5384 5376 5368 5361 5353 5344 5336 5329 5323 5317 5310 5304 5298 5292 5289 5286 5284 5282
5708 5704 5701 5699 5698 5696 5694 5691 5687 5684 5682 5679 5676 5671 5666 5662 5657 5653 5650 5646 5641 5639 5638 5630 5622 5622 5624 5620 5616 5610 5604 5600 5596 5591 5587 5583 5579 5576 5571 5566 5561 5556 5551 5546 5540 5535 5529 5524 5519 5513 5508 5502 5496 5491 5485 5479 5473 5466 5459 5451 5442 5434 5426 5417 5407 5397 5388 5380 5372 5365 5357 5349 5340 5331 5322 5314 5307 5300 5293 5287 5281 5277 5274 5272 5271 5271
5707 5704 5700 5696 5694 5691 5688 5685 5682 5679 5678 5675 5672 5668 5662 5658 5654 5650 5647 5642 5638 5632 5629 5627 5621 5617 5619 5617 5610 5604 5599 5594 5591 5587 5581 5576 5572 5569 5564 5559 5554 5549 5543 5538 5532 5527 5521 5515 5510 5504 5499 5493 5488 5482 5476 5470 5463 5456 5449 5440 5431 5421 5413 5404 5395 5386 5378 5369 5360 5352 5344 5335 5325 5315 5306 5298 5291 5283 5277 5271 5266 5263 5261 5260 5260 5260
5705 5703 5699 5695 5693 5689 5686 5682 5677 5675 5674 5671 5668 5664 5659 5654 5650 5647 5643 5640 5635 5625 5621 5623 5617 5611 5615 5613 5604 5599 5594 5589 5585 5581 5576 5572 5567 5562 5557 5552 5547 5541 5536 5530 5525 5519 5514 5508 5502 5497 5491 5485 5479 5473 5466 5459 5453 5445 5438 5430 5420 5410 5400 5391 5383 5374 5366 5358 5350 5341 5331 5321 5311 5300 5290 5283 5275 5269 5263 5258 5254 5252 5250 5250 5250 5249
5701 5700 5697 5694 5692 5688 5684 5680 5675 5672 5670 5668 5665 5660 5655 5650 5646 5644 5640 5637 5631 5621 5617 5619 5612 5605 5607 5605 5597 5593 5589 5583 5579 5573 5569 5565 5559 5555 5550 5544 5538 5533 5527 5522 5517 5512 5507 5501 5495 5489 5482 5476 5470 5463 5456 5449 5442 5434 5426 5417 5408 5399 5389 5380 5372 5363 5355 5347 5338 5329 5319 5308 5297 5287 5277 5269 5262 5256 5251 5247 5244 5242 5241 5240 5240 5239
5698 5696 5694 5691 5689 5686 5682 5677 5673 5669 5667 5665 5661 5656 5651 5646 5642 5639 5637 5633 5626 5617 5613 5612 5607 5601 5600 5595 5589 5586 5582 5577 5573 5567 5562 5558 5553 5547 5541 5536 5531 5526 5521 5515 5510 5504 5498 5493 5487 5480 5473 5467 5461 5455 5448 5441 5433 5424 5415 5406 5397 5387 5378 5370 5362 5354 5346 5337 5328 5318 5307 5296 5285 5275 5266 5258 5251 5245 5240 5237 5234 5232 5232 5231 5230 5230
5694 5692 5690 5687 5686 5684 5679 5674 5670 5666 5663 5661 5658 5652 5646 5642 5639 5635 5632 5629 5621 5614 5610 5606 5602 5599 5594 5586 5582 5580 5575 5570 5566 5560 5556 5552 5546 5541 5535 5530 5525 5520 5514 5509 5502 5496 5490 5484 5478 5471 5465 5459 5453 5446 5439 5431 5423 5415 5405 5396 5386 5376 5367 5359 5352 5344 5336 5328 5318 5308 5297 5285 5274 5264 5256 5248 5242 5236 5231 5227 5224 5223 5221 5221 5220 5219
5692 5689 5686 5682 5681 5680 5676 5671 5667 5662 5658 5656 5653 5648 5642 5637 5634 5631 5628 5624 5617 5610 5606 5600 5596 5594 5589 5581 5575 5572 5568 5564 5560 5555 5550 5545 5540 5535 5530 5524 5519 5513 5507 5501 5495 5489 5482 5476 5469 5463 5457 5451 5444 5437 5430 5422 5413 5404 5395 5385 5375 5366 5358 5351 5343 5335 5327 5318 5309 5298 5287 5276 5265 5256 5248 5241 5234 5228 5223 5219 5216 5214 5212 5211 5210 5209
5689 5685 5682 5677 5675 5675 5671 5666 5663 5659 5654 5651 5648 5643 5638 5633 5629 5626 5623 5619 5613 5606 5601 5596 5591 5587 5582 5576 5571 5567 5562 5557 5553 5549 5544 5539 5533 5528 5523 5518 5512 5506 5500 5494 5488 5481 5475 5468 5462 5456 5450 5443 5436 5428 5420 5412 5403 5394 5384 5374 5365 5357 5350 5343 5336 5328 5319 5310 5301 5290 5279 5268 5258 5250 5242 5235 5229 5223 5217 5213 5210 5208 5205 5204 5202 5201
5686 5682 5678 5673 5669 5669 5666 5661 5657 5654 5650 5646 5642 5637 5633 5628 5624 5620 5617 5614 5608 5601 5595 5591 5586 5581 5576 5571 5566 5561 5556 5550 5546 5542 5538 5533 5527 5521 5516 5510 5504 5499 5493 5486 5480 5474 5467 5461 5455 5448 5441 5434 5427 5419 5411 5402 5393 5383 5374 5365 5357 5350 5343 5336 5328 5320 5312 5303 5293 5283 5272 5262 5252 5244 5237 5230 5224 5218 5213 5209 5206 5203 5200 5198 5196 5195
5683 5679 5675 5670 5664 5663 5661 5656 5651 5649 5646 5641 5636 5631 5627 5623 5619 5614 5612 5610 5603 5595 5590 5585 5581 5576 5570 5565 5560 5555 5550 5544 5539 5536 5531 5526 5520 5514 5508 5503 5497 5491 5484 5478 5472 5466 5460 5454 5447 5440 5433 5426 5418 5410 5402 5392 5383 5373 5364 5356 5349 5343 5336 5328 5321 5313 5305 5296 5286 5277 5266 5256 5247 5239 5232 5225 5220 5214 5209 5205 5202 5198 5196 5193 5191 5189
5680 5675 5671 5667 5661 5658 5655 5651 5646 5643 5642 5636 5630 5625 5622 5619 5614 5608 5606 5604 5597 5589 5584 5580 5576 5571 5565 5559 5553 5548 5543 5538 5533 5529 5524 5519 5513 5508 5502 5496 5490 5483 5477 5471 5465 5459 5453 5447 5440 5433 5426 5419 5411 5403 5393 5384 5374 5365 5357 5349 5343 5336 5329 5322 5314 5307 5299 5290 5281 5272 5262 5252 5243 5235 5228 5221 5216 5210 5205 5201 5197 5194 5191 5189 5186 5184
5676 5672 5668 5663 5658 5654 5650 5646 5641 5638 5637 5633 5625 5619 5616 5613 5609 5602 5599 5599 5594 5585 5580 5575 5570 5565 5560 5554 5548 5543 5538 5532 5527 5522 5517 5512 5507 5502 5496 5490 5483 5476 5470 5465 5459 5453 5446 5440 5433 5426 5419 5412 5404 5395 5385 5376 5367 5358 5350 5344 5337 5330 5323 5316 5308 5301 5293 5285 5277 5268 5258 5249 5241 5233 5226 5219 5213 5208 5203 5198 5194 5191 5188 5185 5182 5180
5673 5669 5664 5659 5655 5650 5645 5641 5636 5632 5631 5628 5620 5614 5610 5607 5603 5596 5593 5593 5590 5581 5575 5571 5565 5559 5554 5548 5543 5538 5532 5527 5522 5517 5511 5506 5501 5495 5489 5483 5477 5471 5464 5458 5452 5445 5439 5433 5426 5419 5412 5404 5396 5387 5378 5368 5359 5351 5344 5338 5331 5324 5317 5310 5302 5295 5288 5280 5272 5264 5255 5247 5239 5231 5224 5217 5211 5206 5201 5196 5192 5188 5185 5182 5179 5176
5669 5665 5660 5655 5651 5647 5640 5635 5630 5626 5625 5621 5613 5608 5605 5601 5598 5591 5586 5586 5584 5576 5570 5566 5560 5555 5549 5543 5538 5532 5526 5522 5517 5511 5506 5500 5495 5489 5483 5477 5471 5465 5459 5452 5445 5439 5432 5426 5419 5413 5405 5397 5389 5380 5371 5362 5353 5345 5338 5332 5326 5319 5312 5305 5298 5291 5284 5276 5268 5261 5253 5245 5237 5230 5223 5216 5210 5204 5199 5194 5190 5185 5181 5178 5174 5171
5665 5660 5656 5650 5646 5642 5636 5630 5625 5621 5619 5615 5607 5603 5600 5595 5592 5586 5581 5579 5577 5570 5565 5560 5554 5549 5544 5538 5533 5527 5520 5516 5512 5506 5500 5495 5488 5482 5476 5471 5465 5459 5452 5446 5439 5433 5426 5420 5413 5406 5399 5390 5381 5372 5363 5355 5347 5340 5333 5327 5320 5314 5307 5300 5293 5286 5279 5272 5265 5257 5250 5242 5235 5228 5221 5214 5208 5202 5197 5192 5187 5182 5178 5174 5170 5167
5660 5655 5651 5646 5642 5637 5631 5626 5620 5617 5614 5609 5602 5598 5594 5589 5585 5580 5574 5571 5569 5564 5559 5554 5548 5543 5538 5532 5527 5521 5514 5509 5504 5499 5493 5487 5481 5475 5469 5463 5457 5451 5445 5439 5433 5426 5420 5413 5407 5399 5392 5383 5374 5365 5356 5348 5341 5334 5327 5321 5315 5309 5302 5296 5289 5282 5275 5268 5261 5254 5247 5240 5233 5226 5219 5212 5206 5200 5195 5190 5185 5180 5176 5171 5167 5164
5656 5650 5645 5642 5637 5632 5627 5621 5616 5613 5609 5604 5597 5593 5588 5583 5579 5575 5569 5565 5561 5557 5552 5547 5542 5537 5532 5526 5521 5515 5509 5503 5497 5491 5485 5479 5473 5467 5461 5455 5449 5444 5437 5431 5425 5419 5412 5406 5400 5392 5385 5376 5367 5359 5350 5342 5334 5327 5321 5315 5309 5303 5297 5291 5284 5278 5271 5265 5258 5251 5244 5237 5230 5224 5217 5210 5204 5198 5193 5187 5182 5178 5173 5169 5165 5161
5651 5645 5640 5637 5632 5627 5622 5616 5610 5606 5603 5598 5592 5588 5583 5578 5574 5569 5565 5560 5555 5550 5546 5541 5536 5530 5525 5520 5514 5509 5504 5497 5491 5485 5479 5473 5467 5461 5455 5449 5443 5437 5430 5424 5417 5411 5405 5399 5392 5385 5378 5369 5361 5352 5344 5336 5329 5322 5316 5310 5304 5298 5292 5286 5280 5273 5267 5261 5254 5248 5241 5234 5228 5221 5215 5208 5202 5196 5191 5185 5180 5176 5171 5167 5163 5159
5646 5640 5635 5632 5627 5621 5616 5612 5605 5599 5596 5592 5588 5583 5578 5573 5569 5564 5559 5554 5549 5544 5539 5534 5529 5524 5518 5513 5508 5502 5497 5492 5486 5480 5474 5468 5461 5455 5449 5444 5437 5431 5425 5418 5412 5405 5399 5393 5386 5380 5372 5364 5356 5348 5339 5331 5324 5317 5311 5305 5299 5294 5288 5282 5276 5270 5263 5257 5251 5244 5238 5232 5225 5219 5213 5207 5201 5195 5190 5184 5179 5174 5169 5165 5161 5157
5642 5635 5629 5626 5623 5617 5611 5607 5602 5594 5589 5586 5582 5577 5572 5567 5563 5558 5553 5548 5543 5538 5533 5527 5522 5517 5511 5506 5501 5496 5491 5485 5480 5474 5468 5462 5456 5450 5444 5438 5432 5426 5419 5413 5407 5401 5394 5388 5381 5375 5368 5360 5352 5343 5335 5327 5320 5313 5307 5301 5295 5289 5284 5278 5272 5266 5260 5254 5248 5241 5235 5229 5223 5217 5211 5205 5199 5194 5188 5183 5178 5172 5168 5163 5159 5155
5637 5631 5625 5621 5618 5612 5607 5604 5598 5590 5584 5580 5577 5572 5567 5562 5557 5552 5547 5542 5537 5532 5526 5521 5515 5510 5504 5499 5494 5489 5484 5479 5474 5468 5463 5456 5451 5445 5439 5433 5427 5421 5415 5408 5402 5396 5390 5383 5377 5370 5362 5355 5347 5339 5331 5323 5316 5309 5302 5297 5291 5285 5280 5274 5268 5262 5256 5250 5245 5238 5232 5226 5220 5215 5209 5203 5198 5192 5187 5182 5176 5171 5166 5162 5157 5153
5631 5625 5621 5617 5612 5607 5604 5600 5593 5585 5580 5575 5570 5566 5562 5556 5552 5546 5541 5536 5531 5525 5520 5514 5509 5503 5498 5493 5488 5483 5478 5473 5468 5462 5457 5451 5445 5440 5434 5428 5422 5416 5410 5403 5397 5391 5384 5378 5371 5364 5357 5350 5342 5334 5326 5319 5311 5305 5298 5293 5287 5281 5276 5270 5265 5259 5253 5247 5241 5235 5230 5223 5217 5211 5206 5200 5195 5190 5185 5180 5175 5170 5164 5159 5155 5151
5625 5620 5616 5611 5606 5601 5598 5595 5587 5580 5576 5571 5564 5560 5555 5550 5546 5541 5536 5530 5525 5519 5514 5509 5503 5498 5493 5487 5482 5477 5472 5467 5462 5457 5451 5446 5440 5435 5429 5423 5417 5411 5405 5399 5392 5386 5379 5372 5366 5359 5352 5344 5337 5329 5321 5313 5306 5300 5294 5289 5283 5277 5272 5266 5261 5255 5250 5244 5238 5232 5226 5221 5215 5209 5203 5197 5192 5187 5182 5177 5173 5168 5163 5157 5153 5148
5619 5615 5611 5606 5600 5596 5592 5588 5580 5574 5571 5566 5559 5555 5550 5545 5540 5535 5530 5525 5519 5514 5509 5504 5498 5493 5488 5482 5477 5472 5467 5462 5457 5451 5446 5440 5434 5429 5423 5417 5412 5406 5400 5394 5387 5381 5374 5368 5361 5354 5347 5340 5332 5324 5316 5309 5302 5295 5289 5284 5279 5273 5267 5262 5257 5252 5246 5240 5234 5229 5223 5217 5212 5206 5200 5195 5189 5184 5179 5174 5169 5165 5160 5155 5150 5146
5613 5610 5605 5599 5595 5591 5587 5581 5574 5569 5566 5560 5554 5549 5544 5539 5534 5530 5524 5519 5514 5508 5503 5498 5493 5488 5482 5477 5472 5467 5462 5457 5452 5446 5440 5434 5429 5423 5418 5412 5406 5400 5394 5388 5382 5376 5369 5363 5356 5350 5343 5335 5328 5320 5312 5305 5298 5291 5285 5280 5274 5269 5263 5258 5252 5247 5242 5236 5231 5225 5219 5214 5209 5203 5198 5192 5186 5181 5175 5171 5166 5162 5157 5152 5147 5142
5608 5605 5599 5593 5589 5585 5581 5574 5568 5563 5560 5555 5549 5544 5539 5534 5529 5524 5519 5514 5508 5503 5498 5492 5488 5483 5477 5472 5467 5462 5457 5452 5446 5440 5435 5429 5424 5418 5412 5407 5401 5395 5389 5383 5377 5371 5364 5358 5352 5345 5338 5331 5324 5316 5308 5301 5293 5287 5281 5275 5270 5265 5260 5254 5249 5243 5238 5233 5227 5222 5216 5211 5205 5200 5195 5190 5184 5178 5172 5166 5161 5158 5155 5150 5144 5139
5603 5599 5593 5588 5582 5578 5574 5568 5562 5557 5553 5549 5543 5538 5533 5527 5522 5517 5513 5507 5502 5497 5492 5486 5481 5477 5472 5467 5462 5456 5451 5446 5440 5435 5429 5424 5418 5413 5408 5402 5396 5389 5383 5377 5371 5365 5359 5353 5347 5340 5334 5327 5319 5312 5304 5296 5289 5282 5276 5271 5266 5261 5256 5251 5246 5240 5234 5229 5224 5218 5213 5208 5202 5197 5191 5186 5181 5176 5171 5164 5157 5152 5148 5146 5142 5137